#timestamp,LO_Frequency,Hit,StdDev 
1600203615.5,286046999.7,N
1600203635.3,286047003.4,N
1600203655.1,286047004.2,N
1600203675.9,286047003.6,N
1600203695.7,286047003.4,N
1600203715.6,286047005.7,Y
1600203735.4,286047001.7,P
1600203755.2,286047003.3,P
1600203775.1,286047003.0,P
1600203776.0,286047003.0,Y
1600203795.8,286047008.3,P
1600203815.7,286047002.1,N
1600203835.5,286047002.8,N
1600203855.3,286047001.5,N
1600203875.2,286047005.8,N
1600203895.9,286047005.3,N
1600203915.7,286047004.0,N
1600203935.6,286047004.7,N
1600203955.4,286047007.5,Y
1600203975.3,286047002.1,P
1600203995.1,286047004.0,P
1600203996.0,286047004.0,P
1600204015.8,286047007.6,Y
1600204035.7,286047001.7,P
1600204055.5,286047002.0,N
1600204075.3,286047004.1,P
1600204095.2,286047001.8,N
1600204115.0,286047003.4,Y
1600204115.9,286047003.4,P
1600204135.8,286047002.0,P
1600204155.6,286047005.6,P
1600204175.4,286047001.6,N
1600204195.3,286047005.5,Y
1600204215.1,286047000.5,P
1600204235.9,286047002.3,N
1600204255.7,286046999.9,N
1600204275.5,286046999.7,N
1600204295.4,286047000.6,N
1600204315.2,286047004.2,Y
1600204335.1,286047002.0,P
1600204336.0,286047002.0,P
1600204355.8,286046999.9,N
1600204375.6,286047002.7,Y
1600204395.5,286047001.0,P
1600204415.3,286046998.9,P
1600204435.1,286047000.9,N
1600204455.9,286047000.1,N
1600204475.7,286047003.9,Y
1600204495.6,286047004.2,P
1600204515.4,286047003.5,N
1600204535.2,286047005.7,P
1600204555.1,286047005.1,N
1600204556.0,286047005.1,N
1600204575.8,286047006.9,Y
1600204595.7,286047001.8,P
1600204615.5,286047005.5,P
1600204635.3,286047004.6,P
1600204655.2,286047004.7,Y
1600204675.0,286047002.1,P
1600204675.9,286047002.1,N
1600204695.8,286047001.7,N
1600204715.6,286047002.9,Y
1600204735.4,286047003.2,P
1600204755.3,286047005.8,P
1600204775.1,286047005.4,P
1600204795.9,286047005.9,Y
1600204815.7,286047000.4,P
1600204835.5,286047002.7,N
1600204855.4,286047003.1,N
1600204875.2,286047003.1,N
1600204895.0,286047004.6,Y
1600204895.9,286047004.6,P
1600204915.8,286047002.4,N
1600204935.6,286046999.7,N
1600204955.5,286047001.6,N
1600204975.3,286047004.4,N
1600204995.1,286047004.5,N
1600205015.9,286047009.1,Y
1600205035.7,286047007.4,P
1600205055.6,286047006.5,N
1600205075.4,286047006.2,P
1600205095.2,286047008.1,Y
1600205115.1,286047003.3,P
1600205116.0,286047003.3,N
1600205135.8,286047005.7,P
1600205155.7,286047005.3,Y
1600205175.5,286047003.8,P
1600205195.3,286047005.0,P
1600205215.2,286047008.8,P
1600205235.0,286047007.7,Y
1600205235.9,286047007.7,P
1600205255.7,286047004.3,P
1600205275.6,286047002.1,N
1600205295.4,286047003.1,N
1600205315.3,286047007.6,Y
1600205335.1,286047003.7,P
1600205355.8,286047004.9,P
1600205375.7,286047006.8,P
1600205395.5,286047010.4,Y
1600205415.4,286047003.6,P
1600205435.2,286047006.7,P
1600205455.0,286047008.2,P
1600205455.9,286047008.2,Y
1600205475.8,286047004.0,P
1600205495.6,286047003.5,P
1600205515.4,286047004.8,P
1600205535.3,286047008.7,Y
1600205555.1,286047005.5,P
1600205575.9,286047005.1,P
1600205595.7,286047006.1,P
1600205615.5,286047008.1,Y
1600205635.4,286047003.4,P
1600205655.2,286047004.8,P
1600205675.1,286047007.0,P
1600205676.0,286047007.0,Y
1600205695.8,286047001.4,P
1600205715.6,286047005.6,N
1600205735.5,286047007.7,P
1600205755.3,286047010.2,Y
1600205775.2,286047004.5,P
1600205795.9,286047006.9,P
1600205815.7,286047010.2,P
1600205835.6,286047013.2,Y
1600205855.4,286047007.7,P
1600205875.2,286047009.4,P
1600205895.1,286047013.7,P
1600205896.0,286047013.7,Y
1600205915.8,286047006.9,P
1600205935.7,286047007.9,P
1600205955.5,286047009.0,P
1600205975.3,286047007.0,Y
1600205995.2,286046999.3,P
1600206015.0,286046999.2,N
1600206015.9,286046999.2,N
1600206035.8,286047004.4,N
1600206055.6,286046999.0,N
1600206075.4,286046997.5,N
1600206095.3,286046995.5,N
1600206115.1,286046997.9,N
1600206135.9,286046996.7,N
1600206155.7,286047000.8,N
1600206175.5,286047000.4,N
1600206195.4,286047002.4,N
1600206215.2,286047003.1,N
1600206235.0,286047004.4,N
1600206236.0,286047004.4,N
1600206255.8,286047001.7,N
1600206275.6,286047001.6,N
1600206295.5,286047004.3,N
1600206315.3,286047004.0,N
1600206335.1,286047005.6,N
1600206355.9,286047005.1,N
1600206375.7,286047005.1,N
1600206395.6,286047010.6,Y
1600206415.4,286047008.8,P
1600206435.2,286047008.5,N
1600206455.1,286047008.3,N
1600206456.0,286047008.3,N
1600206475.8,286047008.8,Y
1600206495.7,286047000.8,P
1600206515.5,286047001.0,N
1600206535.3,286047000.8,N
1600206555.2,286047000.6,N
1600206575.0,286047000.0,N
1600206575.9,286047000.0,N
1600206595.7,286047003.9,N
1600206615.6,286047005.5,N
1600206635.4,286047004.9,N
1600206655.3,286047004.5,N
1600206675.1,286047008.1,Y
1600206676.0,286047008.1,P
1600206695.8,286047009.4,P
1600206715.7,286047012.1,P
1600206735.5,286047013.9,Y
1600206755.4,286047003.0,P
1600206775.2,286047002.9,N
1600206795.0,286047003.2,N
1600206795.9,286047003.2,N
1600206815.8,286047004.9,N
1600206835.6,286047004.6,N
1600206855.4,286047003.0,N
1600206875.3,286047003.5,N
1600206895.1,286047004.0,N
1600206915.9,286047001.8,N
1600206935.7,286047002.7,N
1600206955.5,286047002.8,N
1600206975.4,286047000.6,N
1600206995.2,286046999.6,N
1600207015.1,286046996.6,N
1600207016.0,286046996.6,N
1600207035.8,286046997.8,N
1600207055.6,286046993.9,N
1600207075.5,286046992.6,N
1600207095.3,286046992.9,N
1600207115.1,286046990.6,N
1600207135.9,286046990.6,N
1600207155.7,286046990.4,N
1600207175.6,286046992.9,N
1600207195.4,286046993.7,N
